Regional Weather Roundup
Issued by NWS Sterling, VA

Home | Current Version | Previous Version | Graphics & Text | Print | Product List | Glossary On
Versions: 1 2 3 4 5 6 7 8 9 10 11 12 13 14 15 16 17 18 19 20 21 22 23 24 25 26 27 28 29 30 31 32 33 34 35 36 37 38 39 40 41 42 43 44 45 46 47 48 49 50
000
ASUS41 KLWX 281410
RWRLWX

REGIONAL WEATHER ROUNDUP
NATIONAL WEATHER SERVICE BALTIMORE MD/WASHINGTON DC
1000 AM EDT SAT MAR 28 2015

Note: "FAIR" indicates few or no clouds below 12,000 feet
with no significant weather and/or obstructions to visibility.
 TC=TEMPERATURE CELSIUS

 * =Non NWS site. Station does not report precipitation (e.g. rain,
    snow, etc.), thunder, or fog.

DCZ001-MDZ009-015-VAZ040>042-051-053>054-281500-
WASHINGTON METRO

CITY           SKY/WX    TMP DP  RH WIND       PRES   REMARKS
WASHINGTON NAT MOSUNNY   34   8  33 NW17G32   30.02R WCI  23
DULLES         MOSUNNY   29   5  36 NW26G39   30.02R WCI  14
ANDREWS AFB    SUNNY     32   6  34 W23G31    29.98R WCI  19
FT BELVOIR     SUNNY     32   8  37 NW20G25   30.02R WCI  20
QUANTICO       SUNNY     33   8  35 N14G36    30.05R WCI  23
COLLEGE PARK*  MOSUNNY   32   5  32 NW17G24   30.00R WCI  21
LEESBURG*      SUNNY     30  10  43 NW21G29   30.03R WCI  17
MANASSAS*      SUNNY     30  12  47 NW20G32   30.04R WCI  18
GAITHERSBURG*  MOSUNNY   27   5  39 NW20G25   30.02R WCI  13

$$

MDZ006>007-011-014-281500-
BALTIMORE METRO

CITY           SKY/WX    TMP DP  RH WIND       PRES   REMARKS
BWI AIRPORT    PTSUNNY   31   7  36 W21G28    29.97R WCI  18
MD SCIENCE CTR   N/A     30  13  49 MISG      29.97R
MARTIN STATE   MOSUNNY   34  23  64 W22       29.98R WCI  22
ANNAPOLIS      CLOUDY    33  10  38 NW16G26   29.97R WCI  23

$$

MDZ012-015-019>023-281500-
MARYLAND EASTERN SHORE

CITY           SKY/WX    TMP DP  RH WIND       PRES   REMARKS
OCEAN CITY     PTSUNNY   37  25  61 NW17G25   29.90R WCI  27
SALISBURY      PTSUNNY   36  22  56 NW21G30   29.92R WCI  25
BAY BRIDGE AP*   N/A     32  14  47 NW22G30   29.97R WCI  19
CAMBRIDGE*     PTSUNNY   36  19  51 NW21G32   29.96R WCI  24
EASTON*        FLURRIES  34  21  60 NW18G24   29.99R WCI  23

$$

MDZ017>025-281500-
SOUTHERN MARYLAND

CITY           SKY/WX    TMP DP  RH WIND       PRES   REMARKS
PATUXENT RIVER MOSUNNY   35  12  38 NW25G36   29.97R WCI  23
ST INIGOES     PTSUNNY   35   8  32 NW16G30   29.97R WCI  25
LEONARDTOWN*   SUNNY     34  10  37 NW13G21   29.99R WCI  25

$$

MDZ003>005-281500-
NORTH CENTRAL MARYLAND

CITY           SKY/WX    TMP DP  RH WIND       PRES   REMARKS
FREDERICK*     PTSUNNY  N/A N/A N/A NW17      30.04R
HAGERSTOWN APT MOSUNNY   27   7  42 NW18      30.01R WCI  14
WESTMINSTER*   PTSUNNY   27  10  50 NW12G18   29.95R WCI  16

$$

MDZ501>502-281500-
WESTERN MARYLAND

CITY           SKY/WX    TMP DP  RH WIND       PRES   REMARKS
OAKLAND*       CLOUDY    10  10 100 NW10G18   29.92R FOG     WCI  -3
CUMBERLAND*    MOSUNNY   25   5  42 NW15G21   30.11S WCI  12

$$

VAZ025>031-281500-
SHENANDOAH VALLEY

CITY           SKY/WX    TMP DP  RH WIND       PRES   REMARKS
WINCHESTER*    SUNNY     28   1  31 NW15G30   30.04R WCI  17
FRONT ROYAL*   FAIR      28   5  37 NW14G23   30.03R WCI  17
LURAY*         PTSUNNY   32  10  40 W6G16     30.02S
NEW MARKET*    PTSUNNY   26   6  41 W7        30.03R
STAUNTON*      PTSUNNY   29   7  39 NW10G18   30.02R WCI  19
WAYNESBORO*    FAIR      27  11  51 NW8       29.98R WCI  19

$$

WVZ021-048>050-054>055-281500-
EASTERN WEST VIRGINIA PANHANDLE

CITY           SKY/WX    TMP DP  RH WIND       PRES   REMARKS
MARTINSBURG    SUNNY     27   5  39 NW21G29   30.04R WCI  13
PETERSBURG*    MOSUNNY   26   4  39 N10       30.07R WCI  16

$$

VAZ036>039-050-281500-
CENTRAL FOOTHILLS

CITY           SKY/WX    TMP DP  RH WIND       PRES   REMARKS
CHARLOTTESVILL SUNNY     31  10  41 NW16G24   30.02R WCI  20
CULPEPER*      SUNNY     34   9  35 NW15G21   30.03S WCI  24
ORANGE*        MOSUNNY   32  12  43 W17G24    30.03R WCI  21
GORDONSVILLE*  PTSUNNY   32  10  40 NW8       30.02R WCI  25
WARRENTON*     FAIR      33  17  51 NW13G22   30.02S WCI  24

$$

VAZ055>057-281500-
NORTH AND CENTRAL PIEDMONT

CITY           SKY/WX    TMP DP  RH WIND       PRES   REMARKS
FREDERICKSBRG* PTSUNNY   34  11  38 NW12G21   30.02R WCI  25
STAFFORD*      MOSUNNY   31   7  35 NW20G30   30.06S WCI  19

$$

NCZ024-NYZ072-PAZ021-071-VAZ022-071-281500-
OTHER REGIONAL OBSERVATIONS

CITY           SKY/WX    TMP DP  RH WIND       PRES   REMARKS
NEW YORK CITY  CLOUDY    34  18  52 NW8       29.84R WCI  27
PHILADELPHIA   PTSUNNY   37  19  48 NW17      29.89R WCI  27
PITTSBURGH     LGT SNOW  17  10  74 W14       30.11R WCI   3
ROANOKE        MOSUNNY   29   6  38 W16       30.06R WCI  17
RICHMOND       MOSUNNY   35  15  44 N13       30.01R WCI  26
RALEIGH        MOSUNNY   38  19  46 NW8G17    30.04R

$$

ANZ530>537-281500-
MARINE OBSERVATIONS

STATION/POSITION TIME  TEMP    WIND        PRES
                       AIR SEA DIR/SP/G
                 (UTC) (F)     (DEG/KT/KT) (MB)
THOMAS PT LIGHT  1400                        N/A
BALT KEY BRIDGE  1300   31     290/ 20/ 24 1013.9R
COVE POINT       1300   32     330/ 15/ 23 1013.9R
LEWISETTA        1300   34 45              1014.4R
SOLOMONS ISLAND  1300      42                N/A
PINEY POINT      1300          340/ 26/ 29   N/A

$$




USA.gov is the U.S. government's official web portal to all federal, state and local government web resources and services.